Location: Biharia
(46.4333°N, 22.8000°E)
Time: 23:14:56
(UTC+00:00)

Cosmos 2344 - Pass Details

Date: 16 October 2021
Orbit: 1234 x 3008 km, 63.3° (Epoch: 26 November)

Event Time Altitude Azimuth Distance (km) Brightness Sun altitude
Rises 17:49:54 0° 319° (NW) 4,432 7.2 -23.0°
Reaches altitude 10° 17:52:31 10° 323° (NW) 3,580 6.6 -23.5°
Maximum altitude 18:01:20 64° 45° (NE) 1,934 4.3 -24.9°
Enters shadow 18:05:58 39° 110° (ESE) 2,696 4.7 -25.7°
